Knox, IN

5:49 PM CDT on October 16, 2017 (GMT -0500)
Starke County

Weather History for KOXI - March, 2012

Change the Weather History Date:

Tuesday, March 6, 2012

  Actual Average (KRCR) Record (KRCR)
Temperature  
Mean Temperature 48 °F -  
Max Temperature 66 °F 41 °F 60 °F (2017)
Min Temperature 29 °F 24 °F 1 °F (2015)
Degree Days  
Heating Degree Days 18    
Moisture  
Dew Point 28 °F    
Average Humidity 52    
Maximum Humidity 75    
Minimum Humidity 29    
Precipitation  
Precipitation 0.00 in - - ()
Sea Level Pressure  
Sea Level Pressure 30.12 in    
Wind  
Wind Speed 16 mph (South)    
Max Wind Speed 33 mph    
Max Gust Speed 45 mph    
Visibility 10 miles    
Events      
Averages and records for this station are not official NWS values.
T = Trace of Precipitation, MM = Missing Value Source: NWS Daily Summary

Daily Weather History Graph

Daily Weather History Graph

Search for Another Location

Airport or City:

Trip Planner

Search our weather history database for the weather conditions in past years. The results will help you decide how hot, cold, wet, or windy it might be!

Date:

Astronomy

Mar. 06, 2012 Rise Set
Actual Time 6:12 AM CST 5:43 PM CST
Civil Twilight 5:44 AM CST 6:11 PM CST
Nautical Twilight 5:12 AM CST 6:43 PM CST
Astronomical Twilight 4:40 AM CST 7:15 PM CST
Moon 4:09 PM CST (3/6) 4:48 AM CST (3/6)
Length of Visible Light 12h 26m
Length of Day
11h 31m
Waxing Gibbous, 96% of the Moon is Illuminated
Mar 6
Waxing Gibbous
Mar 8
Full
Mar 14
Last Quarter
Mar 22
New
Mar 30
First Quarter

Hourly Weather History & Observations

Time (CST) Temp. Windchill Dew Point Humidity Pressure Visibility Wind Dir Wind Speed Gust Speed Precip Events Conditions
12:15 AM 30.0 °F 21.1 °F 22.8 °F 75% 30.30 in 10.0 mi SSE 10.4 mph - N/A   Clear
12:35 AM 29.8 °F 20.9 °F 22.8 °F 75% 30.29 in 10.0 mi SSE 10.4 mph - N/A   Clear
12:55 AM 30.0 °F 21.1 °F 22.6 °F 74% 30.29 in 10.0 mi SSE 10.4 mph - N/A   Clear
1:15 AM 30.2 °F 20.2 °F 22.8 °F 74% 30.28 in 10.0 mi SSE 12.7 mph - N/A   Clear
1:35 AM 30.2 °F 20.8 °F 22.8 °F 74% 30.27 in 10.0 mi SSE 11.5 mph - N/A   Clear
2:15 AM 30.4 °F 19.5 °F 22.6 °F 73% 30.26 in 10.0 mi SSE 15.0 mph - N/A   Clear
2:35 AM 30.4 °F 21.0 °F 22.5 °F 72% 30.25 in 10.0 mi South 11.5 mph - N/A   Clear
2:55 AM 30.6 °F 20.2 °F 22.8 °F 73% 30.24 in 10.0 mi SSE 13.8 mph 20.7 mph N/A   Mostly Cloudy
3:15 AM 31.1 °F 20.5 °F 22.8 °F 71% 30.24 in 10.0 mi South 15.0 mph 20.7 mph N/A   Mostly Cloudy
3:35 AM 30.9 °F 21.7 °F 23.0 °F 72% 30.23 in 10.0 mi SSE 11.5 mph - N/A   Scattered Clouds
3:55 AM 31.3 °F 21.1 °F 23.0 °F 71% 30.22 in 10.0 mi SSE 13.8 mph - N/A   Mostly Cloudy
4:15 AM 31.1 °F 21.4 °F 23.0 °F 72% 30.21 in 10.0 mi SSE 12.7 mph - N/A   Scattered Clouds
4:35 AM 31.6 °F 22.6 °F 23.0 °F 70% 30.21 in 10.0 mi SSE 11.5 mph - N/A   Mostly Cloudy
4:55 AM 32.0 °F 21.6 °F 23.0 °F 69% 30.21 in 10.0 mi South 15.0 mph 18.4 mph N/A   Mostly Cloudy
5:15 AM 32.4 °F 22.1 °F 22.8 °F 68% 30.20 in 10.0 mi South 15.0 mph - N/A   Mostly Cloudy
5:35 AM 32.5 °F 22.7 °F 22.8 °F 67% 30.20 in 10.0 mi South 13.8 mph - N/A   Mostly Cloudy
5:55 AM 32.4 °F 23.5 °F 22.8 °F 68% 30.20 in 10.0 mi South 11.5 mph - N/A   Scattered Clouds
6:15 AM 32.2 °F 22.3 °F 23.0 °F 69% 30.19 in 10.0 mi SSE 13.8 mph - N/A   Mostly Cloudy
6:35 AM 32.4 °F 22.5 °F 23.0 °F 68% 30.19 in 10.0 mi South 13.8 mph 18.4 mph N/A   Overcast
6:55 AM 32.9 °F 23.7 °F 23.0 °F 67% 30.19 in 10.0 mi SSE 12.7 mph - N/A   Mostly Cloudy
7:15 AM 33.4 °F 23.5 °F 23.4 °F 67% 30.18 in 10.0 mi South 15.0 mph 20.7 mph N/A   Mostly Cloudy
7:35 AM 34.3 °F 25.0 °F 23.4 °F 64% 30.18 in 10.0 mi South 13.8 mph 20.7 mph N/A   Scattered Clouds
8:15 AM 37.6 °F 27.7 °F 23.7 °F 57% 30.16 in 10.0 mi South 18.4 mph 24.2 mph N/A   Clear
8:35 AM 39.6 °F 30.6 °F 23.7 °F 53% 30.16 in 10.0 mi South 17.3 mph 25.3 mph N/A   Clear
8:55 AM 41.0 °F 32.5 °F 24.3 °F 51% 30.15 in 10.0 mi South 17.3 mph 24.2 mph N/A   Clear
9:15 AM 43.0 °F 34.2 °F 24.4 °F 48% 30.15 in 10.0 mi South 20.7 mph 27.6 mph N/A   Clear
9:35 AM 45.0 °F 36.4 °F 24.8 °F 45% 30.15 in 10.0 mi South 23.0 mph 27.6 mph N/A   Clear
9:55 AM 46.8 °F - 25.3 °F 43% 30.14 in 10.0 mi South 24.2 mph 29.9 mph N/A   Clear
10:15 AM 48.6 °F - 26.2 °F 42% 30.13 in 10.0 mi South 20.7 mph 28.8 mph N/A   Clear
10:35 AM 50.4 °F - 27.3 °F 41% 30.13 in 10.0 mi South 21.9 mph 29.9 mph N/A   Clear
10:55 AM 52.5 °F - 28.6 °F 40% 30.11 in 10.0 mi SSW 21.9 mph 33.4 mph N/A   Clear
11:15 AM 54.3 °F - 30.0 °F 39% 30.10 in 10.0 mi SSW 24.2 mph 32.2 mph N/A   Clear
11:35 AM 55.9 °F - 31.1 °F 39% 30.10 in 10.0 mi SSW 25.3 mph 32.2 mph N/A   Clear
12:15 PM 59.2 °F - 32.4 °F 36% 30.08 in 10.0 mi SSW 23.0 mph 31.1 mph N/A   Clear
1:15 PM 63.0 °F - 34.0 °F 34% 30.04 in 10.0 mi SSW 26.5 mph 33.4 mph N/A   Clear
1:35 PM 63.7 °F - 34.5 °F 34% 30.02 in 10.0 mi SSW 28.8 mph 35.7 mph N/A   Clear
1:55 PM 64.6 °F - 34.9 °F 33% 30.01 in 10.0 mi SSW 25.3 mph 36.8 mph N/A   Clear
2:35 PM 65.8 °F - 35.4 °F 32% 29.99 in 10.0 mi SSW 29.9 mph 36.8 mph N/A   Clear
2:55 PM 66.4 °F - 35.1 °F 31% 29.98 in 10.0 mi SSW 29.9 mph 34.5 mph N/A   Clear
3:15 PM 66.6 °F - 34.9 °F 31% 29.98 in 10.0 mi SSW 26.5 mph 42.6 mph N/A   Clear
3:35 PM 66.4 °F - 34.3 °F 31% 29.98 in 10.0 mi SSW 19.6 mph 33.4 mph N/A   Clear
3:55 PM 66.2 °F - 34.0 °F 30% 29.98 in 10.0 mi SSW 33.4 mph 42.6 mph N/A   Clear
4:15 PM 65.8 °F - 32.9 °F 29% 29.98 in 10.0 mi SSW 31.1 mph 44.9 mph N/A   Clear
4:35 PM 65.3 °F - 32.5 °F 29% 29.97 in 10.0 mi SSW 25.3 mph 39.1 mph N/A   Clear
4:55 PM 64.8 °F - 32.9 °F 30% 29.98 in 10.0 mi SSW 29.9 mph 40.3 mph N/A   Clear
5:15 PM 63.7 °F - 33.1 °F 32% 29.98 in 10.0 mi SSW 24.2 mph 29.9 mph N/A   Clear
5:35 PM 62.4 °F - 33.4 °F 34% 29.99 in 10.0 mi SSW 17.3 mph 27.6 mph N/A   Clear
5:55 PM 61.0 °F - 34.3 °F 37% 29.99 in 10.0 mi South 17.3 mph 28.8 mph N/A   Clear
6:15 PM 60.1 °F - 34.7 °F 39% 29.99 in 10.0 mi South 19.6 mph 26.5 mph N/A   Clear
6:35 PM 59.4 °F - 34.7 °F 40% 29.99 in 10.0 mi South 20.7 mph 27.6 mph N/A   Clear
7:35 PM 58.3 °F - 34.3 °F 41% 30.00 in 10.0 mi South 17.3 mph 26.5 mph N/A   Clear
7:55 PM 58.1 °F - 34.2 °F 41% 30.00 in 10.0 mi South 17.3 mph 26.5 mph N/A   Clear
8:15 PM 57.2 °F - 34.5 °F 43% 30.01 in 10.0 mi South 16.1 mph - N/A   Clear
8:35 PM 56.3 °F - 34.7 °F 44% 30.01 in 10.0 mi South 13.8 mph 20.7 mph N/A   Clear
8:55 PM 55.6 °F - 34.7 °F 45% 30.02 in 10.0 mi South 15.0 mph - N/A   Clear
9:15 PM 55.4 °F - 34.5 °F 45% 30.02 in 10.0 mi South 12.7 mph - N/A   Clear
9:35 PM 54.9 °F - 34.3 °F 46% 30.03 in 10.0 mi South 13.8 mph - N/A   Clear
9:55 PM 54.5 °F - 34.0 °F 46% 30.03 in 10.0 mi South 13.8 mph - N/A   Clear
10:15 PM 53.8 °F - 33.8 °F 47% 30.03 in 10.0 mi South 12.7 mph - N/A   Clear
10:55 PM 51.8 °F - 33.8 °F 50% 30.04 in 10.0 mi South 10.4 mph - N/A   Clear
11:35 PM 51.6 °F - 32.9 °F 49% 30.04 in 10.0 mi South 12.7 mph - N/A   Clear
11:55 PM 52.9 °F - 31.3 °F 44% 30.05 in 10.0 mi SSW 16.1 mph 23.0 mph N/A   Clear